Location: Auburn
(32.6100°N, 85.4810°W)
Time: 14:56:35
(UTC-05:00)

ISS - Visible Passes

Search period start: 21 May 2019 00:00
Search period end: 31 May 2019 00:00
Orbit: 407 x 410 km, 51.6° (Epoch: 22 May)

Date Brightness Start Highest point End Pass type
(mag) Time Alt. Az. Time Alt. Az. Time Alt. Az.
21 May -2.0 04:32:03 17° SSW 04:32:03 17° SSW 04:33:15 10° S visible
21 May -0.1 21:08:06 10° NW 21:08:39 10° NNW 21:09:14 10° NNW visible
22 May -0.7 20:15:20 10° WNW 20:17:32 17° NNW 20:19:45 10° N visible
30 May -0.2 23:11:28 10° NNW 23:11:35 11° NNW 23:11:35 11° NNW visible
